Tracking 18843 objects as of 21-November-2017
HD Live streaming from Space Station
objects crossing your sky now

IRIDIUM 117

Track IRIDIUM 117 now!
10-day predictions
IRIDIUM 117 is classified as:


NORAD ID: 42808
Int'l Code: 2017-039F
Perigee: 782.9 km
Apogee: 786.7 km
Inclination: 86.4 °
Period: 100.4 minutes
Semi major axis: 7155 km
RCS: Unknown
Launch date: June 25, 2017
Source: United States (US)
Launch site: AIR FORCE WESTERN TEST RANGE (AFWTR)
aabbcc
Your satellite tracking list
Your tracking list is empty




NASA's NSSDC Master Catalog

Two Line Element Set (TLE):
1 42808U 17039F   17324.26100164  .00000113  00000-0  33449-4 0  9991
2 42808  86.4012 221.9460 0002711  95.3604 264.7901 14.34217086 21229
Source of the keplerian elements: AFSPC